SAS1422 EKCH-LEPA

Flight info

Callsign SAS1422
Flight time N/A
Altitude 36000
Route NEXEN T503 GIMRU DCT MICOS DCT WRB DCT XAROL DCT BOMBI DCT GIGET DCT ABUKA DCT KRH DCT NATOR/N0436F350 DCT LUTIX DCT BENOT DCT NEMOS/N0437F370 DCT GEVEA DCT INCUS DCT BALSI DCT RETNO DCT TUPOX DCT MTG DCT DIVKO DCT VATIR N852 VERSO L129 LUNIK
Aircraft A320/M-SDE3FGHIRWY/LB1

Departure

Time 2026-04-25 16:24
Airport Copenhagen Kastrup Airport (EKCH)

Arrival

Time N/A
Airport Palma de Mallorca Airport (LEPA)
Time Latitude Longitude Altitude Speed Heading
2026-04-25 15:58 55.62695 12.64586 17 ft 0 kts 282°
2026-04-25 16:14 55.62695 12.64591 18 ft 3 kts 281°
2026-04-25 16:14 55.62691 12.64626 20 ft 3 kts 281°
2026-04-25 16:15 55.62687 12.64662 19 ft 3 kts 281°
2026-04-25 16:15 55.62683 12.64697 18 ft 3 kts 282°
2026-04-25 16:15 55.62679 12.64721 18 ft 2 kts 271°
2026-04-25 16:15 55.62675 12.64701 22 ft 2 kts 244°
2026-04-25 16:16 55.62665 12.64685 20 ft 2 kts 217°
2026-04-25 16:16 55.62651 12.64673 18 ft 2 kts 202°
2026-04-25 16:16 55.62641 12.64667 20 ft 1 kts 197°
2026-04-25 16:16 55.62633 12.64664 19 ft 1 kts 194°
2026-04-25 16:17 55.62625 12.64661 18 ft 1 kts 192°
2026-04-25 16:17 55.62622 12.64660 17 ft 0 kts 192°
2026-04-25 16:20 55.62597 12.64653 17 ft 4 kts 186°
2026-04-25 16:20 55.62557 12.64653 17 ft 7 kts 180°
2026-04-25 16:20 55.62389 12.64677 17 ft 13 kts 178°
2026-04-25 16:21 55.62307 12.64633 18 ft 13 kts 228°
2026-04-25 16:21 55.62296 12.64597 17 ft 0 kts 245°
2026-04-25 16:21 55.62294 12.64589 17 ft 3 kts 245°
2026-04-25 16:21 55.62274 12.64514 17 ft 10 kts 246°
2026-04-25 16:22 55.62239 12.64392 15 ft 13 kts 232°
2026-04-25 16:22 55.62152 12.64307 16 ft 15 kts 206°
2026-04-25 16:22 55.62054 12.64224 19 ft 17 kts 205°
2026-04-25 16:22 55.61943 12.64130 18 ft 19 kts 205°
2026-04-25 16:23 55.61824 12.64071 17 ft 17 kts 174°
2026-04-25 16:23 55.61700 12.64086 19 ft 18 kts 176°
2026-04-25 16:23 55.61604 12.64041 22 ft 13 kts 221°
2026-04-25 16:23 55.61458 12.63813 20 ft 57 kts 220°
2026-04-25 16:24 55.61000 12.63113 20 ft 114 kts 221°
2026-04-25 16:24 55.60288 12.62001 20 ft 157 kts 223°
2026-04-25 16:24 55.59490 12.60723 533 ft 151 kts 229°
2026-04-25 16:24 55.58689 12.59493 1011 ft 154 kts 233°
2026-04-25 16:25 55.57865 12.58224 1400 ft 165 kts 233°
2026-04-25 16:25 55.57262 12.57276 1507 ft 180 kts 232°
2026-04-25 16:25 55.55838 12.55274 1785 ft 216 kts 226°
2026-04-25 16:25 55.54544 12.53654 2113 ft 240 kts 223°
2026-04-25 16:26 55.53121 12.51935 2711 ft 253 kts 223°
2026-04-25 16:26 55.51650 12.50185 3544 ft 257 kts 222°
2026-04-25 16:26 55.50156 12.48403 4398 ft 260 kts 223°
2026-04-25 16:26 55.48648 12.46591 5214 ft 264 kts 223°
2026-04-25 16:27 55.47128 12.44752 6020 ft 268 kts 223°
2026-04-25 16:27 55.45582 12.42870 6638 ft 274 kts 223°
2026-04-25 16:27 55.44011 12.40957 6878 ft 275 kts 223°
2026-04-25 16:27 55.42436 12.39043 7682 ft 275 kts 224°
2026-04-25 16:28 55.40837 12.37100 8523 ft 276 kts 225°
2026-04-25 16:28 55.39251 12.35172 9321 ft 278 kts 225°
2026-04-25 16:28 55.37657 12.33235 10077 ft 280 kts 226°
2026-04-25 16:28 55.36029 12.31245 10511 ft 294 kts 226°
2026-04-25 16:29 55.34292 12.29096 10648 ft 316 kts 225°
2026-04-25 16:29 55.32455 12.26842 11093 ft 326 kts 225°
2026-04-25 16:29 55.30580 12.24576 11726 ft 330 kts 225°
2026-04-25 16:29 55.28679 12.22301 12409 ft 332 kts 225°
2026-04-25 16:30 55.26759 12.20000 12980 ft 337 kts 226°
2026-04-25 16:30 55.24809 12.17660 13596 ft 340 kts 226°
2026-04-25 16:30 55.22852 12.15310 14171 ft 343 kts 226°
2026-04-25 16:30 55.20874 12.12935 14727 ft 346 kts 227°
2026-04-25 16:31 55.18895 12.10522 15284 ft 347 kts 229°
2026-04-25 16:31 55.16932 12.08038 15740 ft 349 kts 229°
2026-04-25 16:31 55.14969 12.05507 16262 ft 352 kts 230°
2026-04-25 16:31 55.12991 12.02941 16791 ft 356 kts 230°
2026-04-25 16:32 55.10995 12.00357 17321 ft 359 kts 230°
2026-04-25 16:32 55.08975 11.97755 17861 ft 363 kts 230°
2026-04-25 16:32 55.06932 11.95141 18362 ft 367 kts 230°
2026-04-25 16:32 55.04860 11.92500 18848 ft 370 kts 230°
2026-04-25 16:33 55.02775 11.89849 19375 ft 372 kts 230°
2026-04-25 16:33 55.00676 11.87182 19885 ft 375 kts 230°
2026-04-25 16:33 54.98558 11.84502 20414 ft 378 kts 230°
2026-04-25 16:33 54.96429 11.81814 20904 ft 380 kts 230°
2026-04-25 16:34 54.94280 11.79100 21292 ft 383 kts 229°
2026-04-25 16:34 54.92114 11.76370 21771 ft 386 kts 229°
2026-04-25 16:34 54.89933 11.73624 22251 ft 388 kts 229°
2026-04-25 16:34 54.87736 11.70866 22725 ft 391 kts 229°
2026-04-25 16:35 54.85527 11.68092 23201 ft 393 kts 229°
2026-04-25 16:35 54.83304 11.65302 23630 ft 395 kts 229°
2026-04-25 16:35 54.81068 11.62495 23999 ft 398 kts 229°
2026-04-25 16:35 54.78817 11.59674 24372 ft 400 kts 229°
2026-04-25 16:36 54.76524 11.56801 24730 ft 403 kts 229°
2026-04-25 16:36 54.75782 11.55874 24842 ft 404 kts 229°
2026-04-25 16:36 54.71945 11.51094 25411 ft 408 kts 229°
2026-04-25 16:36 54.69633 11.48219 25681 ft 411 kts 228°
2026-04-25 16:37 54.67307 11.45329 26014 ft 413 kts 228°
2026-04-25 16:37 54.64967 11.42422 26342 ft 416 kts 228°
2026-04-25 16:37 54.62611 11.39502 26648 ft 418 kts 227°
2026-04-25 16:37 54.60237 11.36571 26960 ft 421 kts 227°
2026-04-25 16:38 54.57850 11.33624 27151 ft 426 kts 227°
2026-04-25 16:38 54.55429 11.30635 27393 ft 430 kts 227°
2026-04-25 16:38 54.52984 11.27636 27692 ft 433 kts 227°
2026-04-25 16:38 54.50516 11.24629 27989 ft 436 kts 227°
2026-04-25 16:39 54.48026 11.21606 28207 ft 438 kts 226°
2026-04-25 16:39 54.45534 11.18590 28556 ft 440 kts 226°
2026-04-25 16:39 54.43026 11.15555 28870 ft 442 kts 226°
2026-04-25 16:39 54.40505 11.12507 29173 ft 444 kts 226°
2026-04-25 16:40 0.00900 0.00001 53808 ft 0 kts